START_TIME,STEP,MOV.,EG07,t_acc.,EG08,t_acc.,EG09,t_acc.,EB05,t_acc.,EBP05,t_acc.
1979-07-21 21:00:22.510 ,0,0,0.,1.2,0.,1.2,0.,1.2,,0.0,,0.0
1979-07-21 21:00:23.710 ,0,0,1.,1.2,0.,1.2,0.,1.2,,0.0,,0.0
1979-07-21 21:00:24.910 ,0,0,0.,1.2,0.,1.2,0.,1.2,,0.0,,0.0
1979-07-21 21:00:26.110 ,0,0,1.,1.2,0.,1.2,0.,1.2,,0.0,,0.0
1979-07-21 21:00:27.310 ,0,0,0.,1.2,0.,1.2,0.,1.2,,0.0,,0.0
1979-07-21 21:00:28.510 ,0,0,1.,1.2,1.,1.2,0.,1.2,,0.0,,0.0
1979-07-21 21:00:29.710 ,0,0,0.,1.2,0.,1.2,0.,1.2,,0.0,,0.0
1979-07-21 21:00:30.910 ,0,0,1.,1.2,1.,1.2,0.,1.2,,0.0,,0.0
1979-07-21 21:00:32.110 ,0,0,0.,1.2,0.,1.2,0.,1.2,,0.0,,0.0
1979-07-21 21:00:33.310 ,0,0,2.,1.2,1.,1.2,0.,1.2,,0.0,,0.0
1979-07-21 21:00:34.510 ,0,0,1.,1.2,1.,1.2,0.,1.2,,0.0,,0.0
1979-07-21 21:00:35.710 ,0,0,0.,1.2,0.,1.2,0.,1.2,,0.0,,0.0
1979-07-21 21:00:36.910 ,0,0,0.,1.2,0.,1.2,0.,1.2,,0.0,,0.0
1979-07-21 21:00:38.110 ,0,0,0.,1.2,0.,1.2,0.,1.2,,0.0,,0.0
1979-07-21 21:00:39.310 ,0,0,0.,1.2,0.,1.2,0.,1.2,,0.0,,0.0
1979-07-21 21:00:40.510 ,0,0,0.,1.2,0.,1.2,0.,1.2,,0.0,,0.0
1979-07-21 21:00:41.710 ,0,0,0.,1.2,0.,1.2,0.,1.2,,0.0,,0.0
1979-07-21 21:00:42.910 ,0,0,0.,1.2,0.,1.2,0.,1.2,,0.0,,0.0
1979-07-21 21:00:44.110 ,0,0,0.,1.2,0.,1.2,0.,1.2,,0.0,,0.0
1979-07-21 21:00:45.310 ,0,0,0.,1.2,0.,1.2,0.,1.2,,0.0,,0.0
1979-07-21 21:00:46.510 ,0,0,0.,1.2,0.,1.2,0.,1.2,,0.0,,0.0
1979-07-21 21:00:47.710 ,0,0,1.,1.2,0.,1.2,0.,1.2,,0.0,,0.0
1979-07-21 21:00:48.910 ,0,0,0.,1.2,0.,1.2,0.,1.2,,0.0,,0.0
1979-07-21 21:00:50.110 ,0,0,0.,1.2,0.,1.2,0.,1.2,,0.0,,0.0
1979-07-21 21:00:51.310 ,0,0,0.,1.2,0.,1.2,0.,1.2,,0.0,,0.0
1979-07-21 21:00:52.510 ,0,0,0.,1.2,0.,1.2,0.,1.2,,0.0,,0.0
1979-07-21 21:00:53.710 ,0,0,0.,1.2,0.,1.2,0.,1.2,,0.0,,0.0
1979-07-21 21:00:54.910 ,0,0,0.,1.2,0.,1.2,0.,1.2,,0.0,,0.0
1979-07-21 21:00:56.110 ,0,0,0.,1.2,0.,1.2,0.,1.2,,0.0,,0.0
1979-07-21 21:00:57.310 ,0,0,0.,1.2,0.,1.2,0.,1.2,,0.0,,0.0
1979-07-21 21:00:58.510 ,0,0,0.,1.2,0.,1.2,0.,1.2,,0.0,,0.0
1979-07-21 21:00:59.710 ,0,0,0.,1.2,0.,1.2,0.,1.2,,0.0,,0.0
1979-07-21 21:01:00.910 ,0,0,1.,1.2,1.,1.2,0.,1.2,,0.0,,0.0
1979-07-21 21:01:02.110 ,0,0,0.,1.2,0.,1.2,0.,1.2,,0.0,,0.0
1979-07-21 21:01:03.310 ,0,0,0.,1.2,0.,1.2,0.,1.2,,0.0,,0.0
1979-07-21 21:01:04.510 ,0,0,0.,1.2,0.,1.2,0.,1.2,,0.0,,0.0
1979-07-21 21:01:05.710 ,0,0,0.,1.2,0.,1.2,0.,1.2,,0.0,,0.0
1979-07-21 21:01:06.910 ,0,0,0.,1.2,0.,1.2,0.,1.2,,0.0,,0.0
1979-07-21 21:01:08.110 ,0,0,0.,1.2,0.,1.2,0.,1.2,,0.0,,0.0
1979-07-21 21:01:09.310 ,0,0,0.,1.2,0.,1.2,0.,1.2,,0.0,,0.0
1979-07-21 21:01:10.510 ,0,0,0.,1.2,0.,1.2,0.,1.2,,0.0,,0.0
1979-07-21 21:01:11.710 ,0,0,0.,1.2,0.,1.2,0.,1.2,,0.0,,0.0
1979-07-21 21:01:12.910 ,0,0,0.,1.2,0.,1.2,0.,1.2,,0.0,,0.0
1979-07-21 21:01:14.110 ,0,0,0.,1.2,0.,1.2,0.,1.2,,0.0,,0.0
1979-07-21 21:01:15.310 ,0,0,0.,1.2,0.,1.2,0.,1.2,,0.0,,0.0
1979-07-21 21:01:16.510 ,0,0,0.,1.2,0.,1.2,0.,1.2,,0.0,,0.0
1979-07-21 21:01:17.710 ,0,0,0.,1.2,0.,1.2,0.,1.2,,0.0,,0.0
1979-07-21 21:01:18.910 ,0,0,0.,1.2,0.,1.2,0.,1.2,,0.0,,0.0
1979-07-21 21:01:20.110 ,0,0,0.,1.2,0.,1.2,0.,1.2,,0.0,,0.0
1979-07-21 21:01:21.310 ,0,0,0.,1.2,0.,1.2,0.,1.2,,0.0,,0.0
1979-07-21 21:01:22.510 ,0,0,1.,1.2,1.,1.2,0.,1.2,,0.0,,0.0
1979-07-21 21:01:23.710 ,0,0,0.,1.2,0.,1.2,0.,1.2,,0.0,,0.0
1979-07-21 21:01:24.910 ,0,0,0.,1.2,0.,1.2,0.,1.2,,0.0,,0.0
1979-07-21 21:01:26.110 ,0,0,0.,1.2,0.,1.2,0.,1.2,,0.0,,0.0
1979-07-21 21:01:27.310 ,0,0,0.,1.2,0.,1.2,0.,1.2,,0.0,,0.0
1979-07-21 21:01:28.510 ,0,0,0.,1.2,0.,1.2,0.,1.2,,0.0,,0.0
1979-07-21 21:01:29.710 ,0,0,0.,1.2,0.,1.2,0.,1.2,,0.0,,0.0
1979-07-21 21:01:30.910 ,0,0,0.,1.2,0.,1.2,0.,1.2,,0.0,,0.0
1979-07-21 21:01:32.110 ,0,0,1.,1.2,1.,1.2,0.,1.2,,0.0,,0.0
1979-07-21 21:01:33.310 ,0,0,0.,1.2,0.,1.2,0.,1.2,,0.0,,0.0
1979-07-21 21:01:34.510 ,1,0,0.,1.2,0.,1.2,0.,1.2,,0.0,,0.0
1979-07-21 21:01:35.710 ,1,0,0.,1.2,0.,1.2,0.,1.2,,0.0,,0.0
1979-07-21 21:01:36.910 ,1,0,0.,1.2,0.,1.2,0.,1.2,,0.0,,0.0
1979-07-21 21:01:38.110 ,1,0,0.,1.2,0.,1.2,0.,1.2,,0.0,,0.0
1979-07-21 21:01:39.310 ,1,0,0.,1.2,0.,1.2,0.,1.2,,0.0,,0.0
1979-07-21 21:01:40.510 ,1,0,0.,1.2,0.,1.2,0.,1.2,,0.0,,0.0
1979-07-21 21:01:41.710 ,1,0,0.,1.2,0.,1.2,0.,1.2,,0.0,,0.0
1979-07-21 21:01:42.910 ,1,0,0.,1.2,0.,1.2,0.,1.2,,0.0,,0.0
1979-07-21 21:01:44.110 ,1,0,0.,1.2,0.,1.2,0.,1.2,,0.0,,0.0
1979-07-21 21:01:45.310 ,1,0,0.,1.2,0.,1.2,0.,1.2,,0.0,,0.0
1979-07-21 21:01:46.510 ,1,0,1.,1.2,0.,1.2,0.,1.2,,0.0,,0.0
1979-07-21 21:01:47.710 ,1,0,0.,1.2,0.,1.2,0.,1.2,,0.0,,0.0
1979-07-21 21:01:48.910 ,1,0,0.,1.2,0.,1.2,0.,1.2,,0.0,,0.0
1979-07-21 21:01:50.110 ,1,0,0.,1.2,0.,1.2,0.,1.2,,0.0,,0.0
1979-07-21 21:01:51.310 ,1,0,0.,1.2,0.,1.2,0.,1.2,,0.0,,0.0
1979-07-21 21:01:52.510 ,1,0,1.,1.2,0.,1.2,0.,1.2,,0.0,,0.0
1979-07-21 21:01:53.710 ,1,0,0.,1.2,0.,1.2,0.,1.2,,0.0,,0.0
1979-07-21 21:01:54.910 ,1,0,0.,1.2,0.,1.2,0.,1.2,,0.0,,0.0
1979-07-21 21:01:56.110 ,1,0,0.,1.2,0.,1.2,0.,1.2,,0.0,,0.0
1979-07-21 21:01:57.310 ,1,0,0.,1.2,0.,1.2,0.,1.2,,0.0,,0.0
1979-07-21 21:01:58.510 ,1,0,0.,1.2,0.,1.2,0.,1.2,,0.0,,0.0
1979-07-21 21:01:59.710 ,1,0,0.,1.2,0.,1.2,0.,1.2,,0.0,,0.0
1979-07-21 21:02:00.910 ,1,0,0.,1.2,0.,1.2,0.,1.2,,0.0,,0.0
1979-07-21 21:02:02.110 ,1,0,0.,1.2,0.,1.2,0.,1.2,,0.0,,0.0
1979-07-21 21:02:03.310 ,1,0,0.,1.2,0.,1.2,0.,1.2,,0.0,,0.0
1979-07-21 21:02:04.510 ,1,0,0.,1.2,0.,1.2,0.,1.2,,0.0,,0.0
1979-07-21 21:02:05.710 ,1,0,0.,1.2,0.,1.2,0.,1.2,,0.0,,0.0
1979-07-21 21:02:06.910 ,1,0,0.,1.2,0.,1.2,0.,1.2,,0.0,,0.0
1979-07-21 21:02:08.110 ,1,0,1.,1.2,1.,1.2,0.,1.2,,0.0,,0.0
1979-07-21 21:02:09.310 ,1,0,2.,1.2,1.,1.2,0.,1.2,,0.0,,0.0
1979-07-21 21:02:10.510 ,1,0,0.,1.2,0.,1.2,0.,1.2,,0.0,,0.0
1979-07-21 21:02:11.710 ,1,0,0.,1.2,0.,1.2,0.,1.2,,0.0,,0.0
1979-07-21 21:02:12.910 ,1,0,0.,1.2,0.,1.2,0.,1.2,,0.0,,0.0
1979-07-21 21:02:14.110 ,1,0,0.,1.2,0.,1.2,0.,1.2,,0.0,,0.0
1979-07-21 21:02:15.310 ,1,0,0.,1.2,0.,1.2,0.,1.2,,0.0,,0.0
1979-07-21 21:02:16.510 ,1,0,0.,1.2,0.,1.2,0.,1.2,,0.0,,0.0
1979-07-21 21:02:17.710 ,1,0,0.,1.2,0.,1.2,0.,1.2,,0.0,,0.0
1979-07-21 21:02:18.910 ,1,0,1.,1.2,0.,1.2,0.,1.2,,0.0,,0.0
1979-07-21 21:02:20.110 ,1,0,0.,1.2,0.,1.2,0.,1.2,,0.0,,0.0
1979-07-21 21:02:21.310 ,1,0,0.,1.2,0.,1.2,0.,1.2,,0.0,,0.0
1979-07-21 21:02:22.510 ,2,0,0.,1.2,0.,1.2,0.,1.2,,0.0,,0.0
1979-07-21 21:02:23.710 ,2,0,0.,1.2,0.,1.2,0.,1.2,,0.0,,0.0
1979-07-21 21:02:24.910 ,2,0,0.,1.2,0.,1.2,0.,1.2,,0.0,,0.0
1979-07-21 21:02:26.110 ,2,0,0.,1.2,0.,1.2,0.,1.2,,0.0,,0.0
1979-07-21 21:02:27.310 ,2,0,1.,1.2,0.,1.2,0.,1.2,,0.0,,0.0
1979-07-21 21:02:28.510 ,2,0,2.,1.2,0.,1.2,0.,1.2,,0.0,,0.0
1979-07-21 21:02:29.710 ,2,0,0.,1.2,0.,1.2,0.,1.2,,0.0,,0.0
1979-07-21 21:02:30.910 ,2,0,0.,1.2,0.,1.2,0.,1.2,,0.0,,0.0
1979-07-21 21:02:32.110 ,2,0,0.,1.2,0.,1.2,0.,1.2,,0.0,,0.0
1979-07-21 21:02:33.310 ,2,0,1.,1.2,1.,1.2,1.,1.2,,0.0,,0.0
1979-07-21 21:02:34.510 ,2,0,0.,1.2,0.,1.2,0.,1.2,,0.0,,0.0
1979-07-21 21:02:35.710 ,2,0,0.,1.2,0.,1.2,0.,1.2,,0.0,,0.0
1979-07-21 21:02:36.910 ,2,0,0.,1.2,0.,1.2,0.,1.2,,0.0,,0.0
1979-07-21 21:02:38.110 ,2,0,0.,1.2,0.,1.2,0.,1.2,,0.0,,0.0
1979-07-21 21:02:39.310 ,2,0,0.,1.2,0.,1.2,0.,1.2,,0.0,,0.0
1979-07-21 21:02:40.510 ,2,0,1.,1.2,0.,1.2,0.,1.2,,0.0,,0.0
1979-07-21 21:02:41.710 ,2,0,1.,1.2,0.,1.2,0.,1.2,,0.0,,0.0
1979-07-21 21:02:42.910 ,2,0,0.,1.2,0.,1.2,0.,1.2,,0.0,,0.0
1979-07-21 21:02:44.110 ,2,0,0.,1.2,0.,1.2,0.,1.2,,0.0,,0.0
1979-07-21 21:02:45.310 ,2,0,0.,1.2,0.,1.2,0.,1.2,,0.0,,0.0
1979-07-21 21:02:46.510 ,2,0,0.,1.2,0.,1.2,0.,1.2,,0.0,,0.0
1979-07-21 21:02:47.710 ,2,0,0.,1.2,0.,1.2,0.,1.2,,0.0,,0.0
1979-07-21 21:02:48.910 ,2,0,0.,1.2,0.,1.2,0.,1.2,,0.0,,0.0
1979-07-21 21:02:50.110 ,2,0,0.,1.2,0.,1.2,0.,1.2,,0.0,,0.0
1979-07-21 21:02:51.310 ,2,0,0.,1.2,0.,1.2,0.,1.2,,0.0,,0.0
1979-07-21 21:02:52.510 ,2,0,0.,1.2,0.,1.2,0.,1.2,,0.0,,0.0
1979-07-21 21:02:53.710 ,2,0,1.,1.2,1.,1.2,0.,1.2,,0.0,,0.0
1979-07-21 21:02:54.910 ,2,0,0.,1.2,0.,1.2,0.,1.2,,0.0,,0.0
1979-07-21 21:02:56.110 ,2,0,0.,1.2,0.,1.2,0.,1.2,,0.0,,0.0
1979-07-21 21:02:57.310 ,2,0,0.,1.2,0.,1.2,0.,1.2,,0.0,,0.0
1979-07-21 21:02:58.510 ,2,0,0.,1.2,0.,1.2,0.,1.2,,0.0,,0.0
1979-07-21 21:02:59.710 ,2,0,0.,1.2,0.,1.2,0.,1.2,,0.0,,0.0
1979-07-21 21:03:00.910 ,2,0,0.,1.2,0.,1.2,0.,1.2,,0.0,,0.0
1979-07-21 21:03:02.110 ,2,0,1.,1.2,1.,1.2,0.,1.2,,0.0,,0.0
1979-07-21 21:03:03.310 ,2,0,0.,1.2,0.,1.2,0.,1.2,,0.0,,0.0
1979-07-21 21:03:04.510 ,2,0,0.,1.2,0.,1.2,0.,1.2,,0.0,,0.0
1979-07-21 21:03:05.710 ,2,0,0.,1.2,0.,1.2,0.,1.2,,0.0,,0.0
1979-07-21 21:03:06.910 ,2,0,0.,1.2,0.,1.2,0.,1.2,,0.0,,0.0
1979-07-21 21:03:08.110 ,2,0,0.,1.2,0.,1.2,0.,1.2,,0.0,,0.0
1979-07-21 21:03:09.310 ,2,0,0.,1.2,0.,1.2,0.,1.2,,0.0,,0.0
1979-07-21 21:03:10.510 ,3,0,0.,1.2,0.,1.2,0.,1.2,,0.0,,0.0
1979-07-21 21:03:11.710 ,3,0,1.,1.2,0.,1.2,0.,1.2,,0.0,,0.0
1979-07-21 21:03:12.910 ,3,0,0.,1.2,0.,1.2,0.,1.2,,0.0,,0.0
1979-07-21 21:03:14.110 ,3,0,0.,1.2,0.,1.2,0.,1.2,,0.0,,0.0
1979-07-21 21:03:15.310 ,3,0,0.,1.2,0.,1.2,0.,1.2,,0.0,,0.0
1979-07-21 21:03:16.510 ,3,0,2.,1.2,2.,1.2,1.,1.2,,0.0,,0.0
1979-07-21 21:03:17.710 ,3,0,0.,1.2,0.,1.2,0.,1.2,,0.0,,0.0
1979-07-21 21:03:18.910 ,3,0,1.,1.2,0.,1.2,0.,1.2,,0.0,,0.0
1979-07-21 21:03:20.110 ,3,0,0.,1.2,0.,1.2,0.,1.2,,0.0,,0.0
1979-07-21 21:03:21.310 ,3,0,0.,1.2,0.,1.2,0.,1.2,,0.0,,0.0
1979-07-21 21:03:22.510 ,3,0,0.,1.2,0.,1.2,0.,1.2,,0.0,,0.0
1979-07-21 21:03:23.710 ,3,0,0.,1.2,0.,1.2,0.,1.2,,0.0,,0.0
1979-07-21 21:03:24.910 ,3,0,0.,1.2,0.,1.2,0.,1.2,,0.0,,0.0
1979-07-21 21:03:26.110 ,3,0,0.,1.2,0.,1.2,0.,1.2,,0.0,,0.0
1979-07-21 21:03:27.310 ,3,0,0.,1.2,0.,1.2,0.,1.2,,0.0,,0.0
1979-07-21 21:03:28.510 ,3,0,0.,1.2,0.,1.2,0.,1.2,,0.0,,0.0
1979-07-21 21:03:29.710 ,3,0,1.,1.2,1.,1.2,0.,1.2,,0.0,,0.0
1979-07-21 21:03:30.910 ,3,0,1.,1.2,1.,1.2,0.,1.2,,0.0,,0.0
1979-07-21 21:03:32.110 ,3,0,1.,1.2,0.,1.2,0.,1.2,,0.0,,0.0
1979-07-21 21:03:33.310 ,3,0,0.,1.2,0.,1.2,0.,1.2,,0.0,,0.0
1979-07-21 21:03:34.510 ,3,0,0.,1.2,0.,1.2,0.,1.2,,0.0,,0.0
1979-07-21 21:03:35.710 ,3,0,0.,1.2,0.,1.2,0.,1.2,,0.0,,0.0
1979-07-21 21:03:36.910 ,3,0,0.,1.2,0.,1.2,0.,1.2,,0.0,,0.0
1979-07-21 21:03:38.110 ,3,0,0.,1.2,0.,1.2,0.,1.2,,0.0,,0.0
1979-07-21 21:03:39.310 ,3,0,0.,1.2,0.,1.2,0.,1.2,,0.0,,0.0
1979-07-21 21:03:40.510 ,3,0,1.,1.2,1.,1.2,0.,1.2,,0.0,,0.0
1979-07-21 21:03:41.710 ,3,0,0.,1.2,0.,1.2,0.,1.2,,0.0,,0.0
1979-07-21 21:03:42.910 ,3,0,0.,1.2,0.,1.2,0.,1.2,,0.0,,0.0
1979-07-21 21:03:44.110 ,3,0,0.,1.2,0.,1.2,0.,1.2,,0.0,,0.0
1979-07-21 21:03:45.310 ,3,0,0.,1.2,0.,1.2,0.,1.2,,0.0,,0.0
1979-07-21 21:03:46.510 ,3,0,0.,1.2,0.,1.2,0.,1.2,,0.0,,0.0
1979-07-21 21:03:47.710 ,3,0,1.,1.2,1.,1.2,1.,1.2,,0.0,,0.0
1979-07-21 21:03:48.910 ,3,0,0.,1.2,0.,1.2,0.,1.2,,0.0,,0.0
1979-07-21 21:03:50.110 ,3,0,0.,1.2,0.,1.2,0.,1.2,,0.0,,0.0
1979-07-21 21:03:51.310 ,3,0,0.,1.2,0.,1.2,0.,1.2,,0.0,,0.0
1979-07-21 21:03:52.510 ,3,0,0.,1.2,0.,1.2,0.,1.2,,0.0,,0.0
1979-07-21 21:03:53.710 ,3,0,0.,1.2,0.,1.2,0.,1.2,,0.0,,0.0
1979-07-21 21:03:54.910 ,3,0,0.,1.2,0.,1.2,0.,1.2,,0.0,,0.0
1979-07-21 21:03:56.110 ,3,0,0.,1.2,0.,1.2,0.,1.2,,0.0,,0.0
1979-07-21 21:03:57.310 ,3,0,0.,1.2,0.,1.2,0.,1.2,,0.0,,0.0
1979-07-21 21:03:58.510 ,4,0,0.,1.2,0.,1.2,0.,1.2,,0.0,,0.0
1979-07-21 21:03:59.710 ,4,0,0.,1.2,0.,1.2,0.,1.2,,0.0,,0.0
1979-07-21 21:04:00.910 ,4,0,0.,1.2,0.,1.2,0.,1.2,,0.0,,0.0
1979-07-21 21:04:02.110 ,4,0,2.,1.2,1.,1.2,0.,1.2,,0.0,,0.0
1979-07-21 21:04:03.310 ,4,0,0.,1.2,0.,1.2,0.,1.2,,0.0,,0.0
1979-07-21 21:04:04.510 ,4,0,0.,1.2,0.,1.2,0.,1.2,,0.0,,0.0
1979-07-21 21:04:05.710 ,4,0,1.,1.2,0.,1.2,0.,1.2,,0.0,,0.0
1979-07-21 21:04:06.910 ,4,0,0.,1.2,0.,1.2,0.,1.2,,0.0,,0.0
1979-07-21 21:04:08.110 ,4,0,0.,1.2,0.,1.2,0.,1.2,,0.0,,0.0
1979-07-21 21:04:09.310 ,4,0,0.,1.2,0.,1.2,0.,1.2,,0.0,,0.0
1979-07-21 21:04:10.510 ,4,0,1.,1.2,0.,1.2,0.,1.2,,0.0,,0.0
1979-07-21 21:04:11.710 ,4,0,0.,1.2,0.,1.2,0.,1.2,,0.0,,0.0
1979-07-21 21:04:12.910 ,4,0,1.,1.2,0.,1.2,0.,1.2,,0.0,,0.0
1979-07-21 21:04:14.110 ,4,0,0.,1.2,0.,1.2,0.,1.2,,0.0,,0.0
1979-07-21 21:04:15.310 ,4,0,1.,1.2,1.,1.2,0.,1.2,,0.0,,0.0
1979-07-21 21:04:16.510 ,4,0,0.,1.2,0.,1.2,0.,1.2,,0.0,,0.0
1979-07-21 21:04:17.710 ,4,0,1.,1.2,0.,1.2,0.,1.2,,0.0,,0.0
1979-07-21 21:04:18.910 ,4,0,0.,1.2,0.,1.2,0.,1.2,,0.0,,0.0
1979-07-21 21:04:20.110 ,4,0,0.,1.2,0.,1.2,0.,1.2,,0.0,,0.0
1979-07-21 21:04:21.310 ,4,0,0.,1.2,0.,1.2,0.,1.2,,0.0,,0.0
1979-07-21 21:04:22.510 ,4,0,0.,1.2,0.,1.2,0.,1.2,,0.0,,0.0
1979-07-21 21:04:23.710 ,4,0,0.,1.2,0.,1.2,0.,1.2,,0.0,,0.0
1979-07-21 21:04:24.910 ,4,0,0.,1.2,0.,1.2,0.,1.2,,0.0,,0.0
1979-07-21 21:04:26.110 ,4,0,1.,1.2,1.,1.2,0.,1.2,,0.0,,0.0
1979-07-21 21:04:27.310 ,4,0,0.,1.2,0.,1.2,0.,1.2,,0.0,,0.0
1979-07-21 21:04:28.510 ,4,0,0.,1.2,0.,1.2,0.,1.2,,0.0,,0.0
1979-07-21 21:04:29.710 ,4,0,1.,1.2,1.,1.2,0.,1.2,,0.0,,0.0
1979-07-21 21:04:30.910 ,4,0,0.,1.2,0.,1.2,0.,1.2,,0.0,,0.0
1979-07-21 21:04:32.110 ,4,0,0.,1.2,0.,1.2,0.,1.2,,0.0,,0.0
1979-07-21 21:04:33.310 ,4,0,0.,1.2,0.,1.2,0.,1.2,,0.0,,0.0
1979-07-21 21:04:34.510 ,4,0,0.,1.2,0.,1.2,0.,1.2,,0.0,,0.0
1979-07-21 21:04:35.710 ,4,0,0.,1.2,0.,1.2,0.,1.2,,0.0,,0.0
1979-07-21 21:04:36.910 ,4,0,1.,1.2,1.,1.2,1.,1.2,,0.0,,0.0
1979-07-21 21:04:38.110 ,4,0,0.,1.2,0.,1.2,0.,1.2,,0.0,,0.0
1979-07-21 21:04:39.310 ,4,0,0.,1.2,0.,1.2,0.,1.2,,0.0,,0.0
1979-07-21 21:04:40.510 ,4,0,0.,1.2,0.,1.2,0.,1.2,,0.0,,0.0
1979-07-21 21:04:41.710 ,4,0,1.,1.2,1.,1.2,1.,1.2,,0.0,,0.0
1979-07-21 21:04:42.910 ,4,0,2.,1.2,2.,1.2,1.,1.2,,0.0,,0.0
1979-07-21 21:04:44.110 ,4,0,1.,1.2,0.,1.2,0.,1.2,,0.0,,0.0
1979-07-21 21:04:45.310 ,4,0,0.,1.2,0.,1.2,0.,1.2,,0.0,,0.0
1979-07-21 21:04:46.510 ,5,0,0.,1.2,0.,1.2,0.,1.2,,0.0,,0.0
1979-07-21 21:04:47.710 ,5,0,2.,1.2,1.,1.2,0.,1.2,,0.0,,0.0
1979-07-21 21:04:48.910 ,5,0,0.,1.2,0.,1.2,0.,1.2,,0.0,,0.0
1979-07-21 21:04:50.110 ,5,0,0.,1.2,0.,1.2,0.,1.2,,0.0,,0.0
1979-07-21 21:04:51.310 ,5,0,0.,1.2,0.,1.2,0.,1.2,,0.0,,0.0
1979-07-21 21:04:52.510 ,5,0,0.,1.2,0.,1.2,0.,1.2,,0.0,,0.0
1979-07-21 21:04:53.710 ,5,0,0.,1.2,0.,1.2,0.,1.2,,0.0,,0.0
1979-07-21 21:04:54.910 ,5,0,0.,1.2,0.,1.2,0.,1.2,,0.0,,0.0
1979-07-21 21:04:56.110 ,5,0,0.,1.2,0.,1.2,0.,1.2,,0.0,,0.0
1979-07-21 21:04:57.310 ,5,0,0.,1.2,0.,1.2,0.,1.2,,0.0,,0.0
1979-07-21 21:04:58.510 ,5,0,0.,1.2,0.,1.2,0.,1.2,,0.0,,0.0
1979-07-21 21:04:59.710 ,5,0,0.,1.2,0.,1.2,0.,1.2,,0.0,,0.0
1979-07-21 21:05:00.910 ,5,0,0.,1.2,0.,1.2,0.,1.2,,0.0,,0.0
1979-07-21 21:05:02.110 ,5,0,0.,1.2,0.,1.2,0.,1.2,,0.0,,0.0
1979-07-21 21:05:03.310 ,5,0,0.,1.2,0.,1.2,0.,1.2,,0.0,,0.0
1979-07-21 21:05:04.510 ,5,0,1.,1.2,1.,1.2,1.,1.2,,0.0,,0.0
1979-07-21 21:05:05.710 ,5,0,0.,1.2,0.,1.2,0.,1.2,,0.0,,0.0
1979-07-21 21:05:06.910 ,5,0,1.,1.2,1.,1.2,0.,1.2,,0.0,,0.0
1979-07-21 21:05:08.110 ,5,0,0.,1.2,0.,1.2,0.,1.2,,0.0,,0.0
1979-07-21 21:05:09.310 ,5,0,0.,1.2,0.,1.2,0.,1.2,,0.0,,0.0
1979-07-21 21:05:10.510 ,5,0,1.,1.2,0.,1.2,0.,1.2,,0.0,,0.0
1979-07-21 21:05:11.710 ,5,0,0.,1.2,0.,1.2,0.,1.2,,0.0,,0.0
1979-07-21 21:05:12.910 ,5,0,0.,1.2,0.,1.2,0.,1.2,,0.0,,0.0
1979-07-21 21:05:14.110 ,5,0,0.,1.2,0.,1.2,0.,1.2,,0.0,,0.0
1979-07-21 21:05:15.310 ,5,0,0.,1.2,0.,1.2,0.,1.2,,0.0,,0.0
1979-07-21 21:05:16.510 ,5,0,0.,1.2,0.,1.2,0.,1.2,,0.0,,0.0
1979-07-21 21:05:17.710 ,5,0,0.,1.2,0.,1.2,0.,1.2,,0.0,,0.0
1979-07-21 21:05:18.910 ,5,0,0.,1.2,0.,1.2,0.,1.2,,0.0,,0.0
1979-07-21 21:05:20.110 ,5,0,1.,1.2,1.,1.2,0.,1.2,,0.0,,0.0
1979-07-21 21:05:21.310 ,5,0,1.,1.2,1.,1.2,1.,1.2,,0.0,,0.0
1979-07-21 21:05:22.510 ,5,0,0.,1.2,0.,1.2,0.,1.2,,0.0,,0.0
1979-07-21 21:05:23.710 ,5,0,0.,1.2,0.,1.2,0.,1.2,,0.0,,0.0
1979-07-21 21:05:24.910 ,5,0,0.,1.2,0.,1.2,0.,1.2,,0.0,,0.0
1979-07-21 21:05:26.110 ,5,0,0.,1.2,0.,1.2,0.,1.2,,0.0,,0.0
1979-07-21 21:05:27.310 ,5,0,0.,1.2,0.,1.2,0.,1.2,,0.0,,0.0
1979-07-21 21:05:28.510 ,5,0,0.,1.2,0.,1.2,0.,1.2,,0.0,,0.0
1979-07-21 21:05:29.710 ,5,0,1.,1.2,0.,1.2,0.,1.2,,0.0,,0.0
1979-07-21 21:05:30.910 ,5,0,0.,1.2,0.,1.2,0.,1.2,,0.0,,0.0
1979-07-21 21:05:32.110 ,5,0,0.,1.2,0.,1.2,0.,1.2,,0.0,,0.0
1979-07-21 21:05:33.310 ,5,0,0.,1.2,0.,1.2,0.,1.2,,0.0,,0.0
1979-07-21 21:05:34.510 ,6,0,0.,1.2,0.,1.2,0.,1.2,,0.0,,0.0
1979-07-21 21:05:35.710 ,6,0,0.,1.2,0.,1.2,0.,1.2,,0.0,,0.0
1979-07-21 21:05:36.910 ,6,0,0.,1.2,0.,1.2,0.,1.2,,0.0,,0.0
1979-07-21 21:05:38.110 ,6,0,0.,1.2,0.,1.2,0.,1.2,,0.0,,0.0
1979-07-21 21:05:39.310 ,6,0,1.,1.2,1.,1.2,1.,1.2,,0.0,,0.0
1979-07-21 21:05:40.510 ,6,0,0.,1.2,0.,1.2,0.,1.2,,0.0,,0.0
1979-07-21 21:05:41.710 ,6,0,0.,1.2,0.,1.2,0.,1.2,,0.0,,0.0
1979-07-21 21:05:42.910 ,6,0,1.,1.2,1.,1.2,0.,1.2,,0.0,,0.0
1979-07-21 21:05:44.110 ,6,0,0.,1.2,0.,1.2,0.,1.2,,0.0,,0.0
1979-07-21 21:05:45.310 ,6,0,0.,1.2,0.,1.2,0.,1.2,,0.0,,0.0
1979-07-21 21:05:46.510 ,6,0,0.,1.2,0.,1.2,0.,1.2,,0.0,,0.0
1979-07-21 21:05:47.710 ,6,0,0.,1.2,0.,1.2,0.,1.2,,0.0,,0.0
1979-07-21 21:05:48.910 ,6,0,1.,1.2,1.,1.2,0.,1.2,,0.0,,0.0
1979-07-21 21:05:50.110 ,6,0,0.,1.2,0.,1.2,0.,1.2,,0.0,,0.0
1979-07-21 21:05:51.310 ,6,0,0.,1.2,0.,1.2,0.,1.2,,0.0,,0.0
1979-07-21 21:05:52.510 ,6,0,1.,1.2,0.,1.2,0.,1.2,,0.0,,0.0
1979-07-21 21:05:53.710 ,6,0,0.,1.2,0.,1.2,0.,1.2,,0.0,,0.0
1979-07-21 21:05:54.910 ,6,0,0.,1.2,0.,1.2,0.,1.2,,0.0,,0.0
1979-07-21 21:05:56.110 ,6,0,0.,1.2,0.,1.2,0.,1.2,,0.0,,0.0
1979-07-21 21:05:57.310 ,6,0,0.,1.2,0.,1.2,0.,1.2,,0.0,,0.0
1979-07-21 21:05:58.510 ,6,0,0.,1.2,0.,1.2,0.,1.2,,0.0,,0.0
1979-07-21 21:05:59.710 ,6,0,0.,1.2,0.,1.2,0.,1.2,,0.0,,0.0
1979-07-21 21:06:00.910 ,6,0,0.,1.2,0.,1.2,0.,1.2,,0.0,,0.0
1979-07-21 21:06:02.110 ,6,0,0.,1.2,0.,1.2,0.,1.2,,0.0,,0.0
1979-07-21 21:06:03.310 ,6,0,2.,1.2,2.,1.2,0.,1.2,,0.0,,0.0
1979-07-21 21:06:04.510 ,6,0,0.,1.2,0.,1.2,0.,1.2,,0.0,,0.0
1979-07-21 21:06:05.710 ,6,0,0.,1.2,0.,1.2,0.,1.2,,0.0,,0.0
1979-07-21 21:06:06.910 ,6,0,1.,1.2,0.,1.2,0.,1.2,,0.0,,0.0
1979-07-21 21:06:08.110 ,6,0,0.,1.2,0.,1.2,0.,1.2,,0.0,,0.0
1979-07-21 21:06:09.310 ,6,0,0.,1.2,0.,1.2,0.,1.2,,0.0,,0.0
1979-07-21 21:06:10.510 ,6,0,0.,1.2,0.,1.2,0.,1.2,,0.0,,0.0
1979-07-21 21:06:11.710 ,6,0,0.,1.2,0.,1.2,0.,1.2,,0.0,,0.0
1979-07-21 21:06:12.910 ,6,0,0.,1.2,0.,1.2,0.,1.2,,0.0,,0.0
1979-07-21 21:06:14.110 ,6,0,0.,1.2,0.,1.2,0.,1.2,,0.0,,0.0
1979-07-21 21:06:15.310 ,6,0,0.,1.2,0.,1.2,0.,1.2,,0.0,,0.0
1979-07-21 21:06:16.510 ,6,0,0.,1.2,0.,1.2,0.,1.2,,0.0,,0.0
1979-07-21 21:06:17.710 ,6,0,0.,1.2,0.,1.2,0.,1.2,,0.0,,0.0
1979-07-21 21:06:18.910 ,6,0,0.,1.2,0.,1.2,0.,1.2,,0.0,,0.0
1979-07-21 21:06:20.110 ,6,0,0.,1.2,0.,1.2,0.,1.2,,0.0,,0.0
1979-07-21 21:06:21.310 ,6,0,0.,1.2,0.,1.2,0.,1.2,,0.0,,0.0
1979-07-21 21:06:22.510 ,7,0,0.,1.2,0.,1.2,0.,1.2,,0.0,,0.0
1979-07-21 21:06:23.710 ,7,0,0.,1.2,0.,1.2,0.,1.2,,0.0,,0.0
1979-07-21 21:06:24.910 ,7,0,0.,1.2,0.,1.2,0.,1.2,,0.0,,0.0
1979-07-21 21:06:26.110 ,7,0,0.,1.2,0.,1.2,0.,1.2,,0.0,,0.0
1979-07-21 21:06:27.310 ,7,0,0.,1.2,0.,1.2,0.,1.2,,0.0,,0.0
1979-07-21 21:06:28.510 ,7,0,0.,1.2,0.,1.2,0.,1.2,,0.0,,0.0
1979-07-21 21:06:29.710 ,7,0,0.,1.2,0.,1.2,0.,1.2,,0.0,,0.0
1979-07-21 21:06:30.910 ,7,0,0.,1.2,0.,1.2,0.,1.2,,0.0,,0.0
1979-07-21 21:06:32.110 ,7,0,0.,1.2,0.,1.2,0.,1.2,,0.0,,0.0
1979-07-21 21:06:33.310 ,7,0,0.,1.2,0.,1.2,0.,1.2,,0.0,,0.0
1979-07-21 21:06:34.510 ,7,0,0.,1.2,0.,1.2,0.,1.2,,0.0,,0.0
1979-07-21 21:06:35.710 ,7,0,1.,1.2,0.,1.2,0.,1.2,,0.0,,0.0
1979-07-21 21:06:36.910 ,7,0,0.,1.2,0.,1.2,0.,1.2,,0.0,,0.0
1979-07-21 21:06:38.110 ,7,0,0.,1.2,0.,1.2,0.,1.2,,0.0,,0.0
1979-07-21 21:06:39.310 ,7,0,0.,1.2,0.,1.2,0.,1.2,,0.0,,0.0
1979-07-21 21:06:40.510 ,7,0,1.,1.2,0.,1.2,0.,1.2,,0.0,,0.0
1979-07-21 21:06:41.710 ,7,0,0.,1.2,0.,1.2,0.,1.2,,0.0,,0.0
1979-07-21 21:06:42.910 ,7,0,0.,1.2,0.,1.2,0.,1.2,,0.0,,0.0
1979-07-21 21:06:44.110 ,7,0,1.,1.2,1.,1.2,1.,1.2,,0.0,,0.0
1979-07-21 21:06:45.310 ,7,0,0.,1.2,0.,1.2,0.,1.2,,0.0,,0.0
1979-07-21 21:06:46.510 ,7,0,0.,1.2,0.,1.2,0.,1.2,,0.0,,0.0
1979-07-21 21:06:47.710 ,7,0,0.,1.2,0.,1.2,0.,1.2,,0.0,,0.0
1979-07-21 21:06:48.910 ,7,0,1.,1.2,0.,1.2,0.,1.2,,0.0,,0.0
1979-07-21 21:06:50.110 ,7,0,0.,1.2,0.,1.2,0.,1.2,,0.0,,0.0
1979-07-21 21:06:51.310 ,7,0,0.,1.2,0.,1.2,0.,1.2,,0.0,,0.0
1979-07-21 21:06:52.510 ,7,0,0.,1.2,0.,1.2,0.,1.2,,0.0,,0.0
1979-07-21 21:06:53.710 ,7,0,1.,1.2,0.,1.2,0.,1.2,,0.0,,0.0
1979-07-21 21:06:54.910 ,7,0,0.,1.2,0.,1.2,0.,1.2,,0.0,,0.0
1979-07-21 21:06:56.110 ,7,0,0.,1.2,0.,1.2,0.,1.2,,0.0,,0.0
1979-07-21 21:06:57.310 ,7,0,0.,1.2,0.,1.2,0.,1.2,,0.0,,0.0
1979-07-21 21:06:58.510 ,7,0,1.,1.2,0.,1.2,0.,1.2,,0.0,,0.0
1979-07-21 21:06:59.710 ,7,0,0.,1.2,0.,1.2,0.,1.2,,0.0,,0.0
1979-07-21 21:07:00.910 ,7,0,0.,1.2,0.,1.2,0.,1.2,,0.0,,0.0
1979-07-21 21:07:02.110 ,7,0,0.,1.2,0.,1.2,0.,1.2,,0.0,,0.0
1979-07-21 21:07:03.310 ,7,0,1.,1.2,0.,1.2,0.,1.2,,0.0,,0.0
1979-07-21 21:07:04.510 ,7,0,0.,1.2,0.,1.2,0.,1.2,,0.0,,0.0
1979-07-21 21:07:05.710 ,7,0,0.,1.2,0.,1.2,0.,1.2,,0.0,,0.0
1979-07-21 21:07:06.910 ,7,0,0.,1.2,0.,1.2,0.,1.2,,0.0,,0.0
1979-07-21 21:07:08.110 ,7,0,0.,1.2,0.,1.2,0.,1.2,,0.0,,0.0
1979-07-21 21:07:09.310 ,7,0,0.,1.2,0.,1.2,0.,1.2,,0.0,,0.0
1979-07-21 21:07:10.510 ,3,0,0.,1.2,0.,1.2,0.,1.2,,0.0,,0.0
1979-07-21 21:07:11.710 ,3,0,0.,1.2,0.,1.2,0.,1.2,,0.0,,0.0
1979-07-21 21:07:12.910 ,3,0,0.,1.2,0.,1.2,0.,1.2,,0.0,,0.0
1979-07-21 21:07:14.110 ,3,0,0.,1.2,0.,1.2,0.,1.2,,0.0,,0.0
1979-07-21 21:07:15.310 ,3,0,0.,1.2,0.,1.2,0.,1.2,,0.0,,0.0
1979-07-21 21:07:16.510 ,3,0,0.,1.2,0.,1.2,0.,1.2,,0.0,,0.0
1979-07-21 21:07:17.710 ,3,0,0.,1.2,0.,1.2,0.,1.2,,0.0,,0.0
1979-07-21 21:07:18.910 ,3,0,0.,1.2,0.,1.2,0.,1.2,,0.0,,0.0
1979-07-21 21:07:20.110 ,3,0,0.,1.2,0.,1.2,0.,1.2,,0.0,,0.0
1979-07-21 21:07:21.310 ,3,0,0.,1.2,0.,1.2,0.,1.2,,0.0,,0.0
1979-07-21 21:07:22.510 ,3,0,0.,1.2,0.,1.2,0.,1.2,,0.0,,0.0
1979-07-21 21:07:23.710 ,3,0,0.,1.2,0.,1.2,0.,1.2,,0.0,,0.0
1979-07-21 21:07:24.910 ,3,0,0.,1.2,0.,1.2,0.,1.2,,0.0,,0.0
1979-07-21 21:07:26.110 ,3,0,0.,1.2,0.,1.2,0.,1.2,,0.0,,0.0
1979-07-21 21:07:27.310 ,3,0,0.,1.2,0.,1.2,0.,1.2,,0.0,,0.0
1979-07-21 21:07:28.510 ,3,0,0.,1.2,0.,1.2,0.,1.2,,0.0,,0.0
1979-07-21 21:07:29.710 ,3,0,0.,1.2,0.,1.2,0.,1.2,,0.0,,0.0
1979-07-21 21:07:30.910 ,3,0,1.,1.2,0.,1.2,0.,1.2,,0.0,,0.0
1979-07-21 21:07:32.110 ,3,0,0.,1.2,0.,1.2,0.,1.2,,0.0,,0.0
1979-07-21 21:07:33.310 ,3,0,0.,1.2,0.,1.2,0.,1.2,,0.0,,0.0
1979-07-21 21:07:34.510 ,0,0,0.,1.2,0.,1.2,0.,1.2,,0.0,,0.0
1979-07-21 21:07:35.710 ,0,0,0.,1.2,0.,1.2,0.,1.2,,0.0,,0.0
1979-07-21 21:07:36.910 ,0,0,0.,1.2,0.,1.2,0.,1.2,,0.0,,0.0
1979-07-21 21:07:38.110 ,0,0,0.,1.2,0.,1.2,0.,1.2,,0.0,,0.0
1979-07-21 21:07:39.310 ,0,0,0.,1.2,0.,1.2,0.,1.2,,0.0,,0.0
1979-07-21 21:07:40.510 ,0,0,1.,1.2,1.,1.2,0.,1.2,,0.0,,0.0
1979-07-21 21:07:41.710 ,0,0,0.,1.2,0.,1.2,0.,1.2,,0.0,,0.0
1979-07-21 21:07:42.910 ,0,0,0.,1.2,0.,1.2,0.,1.2,,0.0,,0.0
1979-07-21 21:07:44.110 ,0,0,0.,1.2,0.,1.2,0.,1.2,,0.0,,0.0
1979-07-21 21:07:45.310 ,0,0,1.,1.2,1.,1.2,1.,1.2,,0.0,,0.0
1979-07-21 21:07:46.510 ,0,0,0.,1.2,0.,1.2,0.,1.2,,0.0,,0.0
1979-07-21 21:07:47.710 ,0,0,0.,1.2,0.,1.2,0.,1.2,,0.0,,0.0
1979-07-21 21:07:48.910 ,0,0,0.,1.2,0.,1.2,0.,1.2,,0.0,,0.0
1979-07-21 21:07:50.110 ,0,0,1.,1.2,0.,1.2,0.,1.2,,0.0,,0.0
1979-07-21 21:07:51.310 ,0,0,1.,1.2,0.,1.2,0.,1.2,,0.0,,0.0
1979-07-21 21:07:52.510 ,0,0,1.,1.2,0.,1.2,0.,1.2,,0.0,,0.0
1979-07-21 21:07:53.710 ,0,0,1.,1.2,0.,1.2,0.,1.2,,0.0,,0.0
1979-07-21 21:07:54.910 ,0,0,0.,1.2,0.,1.2,0.,1.2,,0.0,,0.0
1979-07-21 21:07:56.110 ,0,0,1.,1.2,0.,1.2,0.,1.2,,0.0,,0.0
1979-07-21 21:07:57.310 ,0,0,1.,1.2,1.,1.2,0.,1.2,,0.0,,0.0
1979-07-21 21:07:58.510 ,4,0,0.,1.2,0.,1.2,0.,1.2,,0.0,,0.0
1979-07-21 21:07:59.710 ,4,0,1.,1.2,1.,1.2,0.,1.2,,0.0,,0.0
1979-07-21 21:08:00.910 ,4,0,0.,1.2,0.,1.2,0.,1.2,,0.0,,0.0
1979-07-21 21:08:02.110 ,4,0,1.,1.2,0.,1.2,0.,1.2,,0.0,,0.0
1979-07-21 21:08:03.310 ,4,0,0.,1.2,0.,1.2,0.,1.2,,0.0,,0.0
1979-07-21 21:08:04.510 ,4,0,0.,1.2,0.,1.2,0.,1.2,,0.0,,0.0
1979-07-21 21:08:05.710 ,4,0,0.,1.2,0.,1.2,0.,1.2,,0.0,,0.0
1979-07-21 21:08:06.910 ,4,0,0.,1.2,0.,1.2,0.,1.2,,0.0,,0.0
1979-07-21 21:08:08.110 ,4,0,0.,1.2,0.,1.2,0.,1.2,,0.0,,0.0
1979-07-21 21:08:09.310 ,4,0,0.,1.2,0.,1.2,0.,1.2,,0.0,,0.0
1979-07-21 21:08:10.510 ,4,0,0.,1.2,0.,1.2,0.,1.2,,0.0,,0.0
1979-07-21 21:08:11.710 ,4,0,0.,1.2,0.,1.2,0.,1.2,,0.0,,0.0